FW2927 Weather Reports


time (UTC)temp
C
wind
direction
speed
KPH
gust
KPH
rain 1hr
cm
rain 24hr
cm
rain mn
cm
humidity
%
barometer
mb
20260510223139 23 305 0.0 1.6 0.00 0.00 0.00 42 1017.0
20260510221537 23 306 0.0 0.0 0.00 0.00 0.00 45 1017.0
20260510220035 23 306 0.0 4.8 0.00 0.00 0.00 43 1016.8
20260510214540 23 325 0.0 9.7 0.00 0.00 0.00 43 1016.8
20260510213038 24 322 0.0 6.4 0.00 0.00 0.00 43 1016.7
20260510211537 23 344 0.0 6.4 0.00 0.00 0.00 45 1016.7
20260510210035 23 33 1.6 6.4 0.00 0.00 0.00 43 1016.7
20260510204539 24 308 3.2 12.9 0.00 0.00 0.00 43 1016.7
20260510203034 24 213 1.6 9.7 0.00 0.00 0.00 46 1016.7
20260510201536 23 355 1.6 12.9 0.00 0.00 0.00 46 1016.7
20260510200055 23 349 1.6 8.0 0.00 0.00 0.00 48 1016.8
20260510194528 23 355 1.6 12.9 0.00 0.00 0.00 49 1016.6
20260510193038 23 304 6.4 12.9 0.00 0.00 0.00 48 1016.8
20260510191525 23 300 3.2 9.7 0.00 0.00 0.00 52 1016.6
20260510190029 22 302 0.0 12.9 0.00 0.00 0.00 54 1016.6
20260510184526 23 340 1.6 14.5 0.00 0.00 0.00 55 1016.6
20260510183041 22 341 3.2 12.9 0.00 0.00 0.00 57 1016.6
20260510181528 23 320 1.6 9.7 0.00 0.00 0.00 60 1016.6
20260510180024 23 313 3.2 9.7 0.00 0.00 0.00 60 1016.7
20260510174521 22 328 0.0 8.0 0.00 0.00 0.00 59 1016.6
20260510173020 23 314 3.2 8.0 0.00 0.00 0.00 57 1016.7
20260510171516 23 296 3.2 11.3 0.00 0.00 0.00 58 1016.7
20260510170012 22 190 0.0 9.7 0.00 0.00 0.00 58 1016.7
20260510164514 22 299 1.6 9.7 0.00 0.00 0.00 58 1016.6
20260510163008 22 294 0.0 9.7 0.00 0.00 0.00 59 1016.5
20260510161505 22 180 0.0 8.0 0.00 0.00 0.00 58 1016.3
20260510160005 22 302 3.2 12.9 0.00 0.00 0.00 57 1016.3
20260510154503 22 313 1.6 11.3 0.00 0.00 0.00 56 1016.1
20260510153003 22 178 3.2 8.0 0.00 0.00 0.00 58 1016.1
20260510151603 22 198 1.6 8.0 0.00 0.00 0.00 60 1016.1
20260510150057 21 280 0.0 6.4 0.00 0.00 0.00 62 1016.0
20260510144557 21 302 1.6 9.7 0.00 0.00 0.00 62 1016.1
20260510143054 21 305 0.0 6.4 0.00 0.00 0.00 64 1016.0
20260510141600 20 298 0.0 4.8 0.00 0.00 0.00 65 1015.8
20260510140053 20 174 0.0 9.7 0.00 0.00 0.00 65 1015.9
20260510134554 20 298 0.0 4.8 0.00 0.00 0.00 67 1015.6
20260510133100 18 219 0.0 8.0 0.00 0.00 0.00 69 1015.5
20260510131540 17 185 0.0 11.3 0.00 0.00 0.00 71 1015.3
20260510130038 16 190 0.0 4.8 0.00 0.00 0.00 75 1015.2
20260510124540 16 210 0.0 4.8 0.00 0.00 0.00 77 1015.1
20260510123045 16 211 0.0 0.0 0.00 0.00 0.00 79 1014.7
20260510121534 15 211 0.0 0.0 0.00 0.00 0.00 80 1014.3
20260510120033 15 211 0.0 0.0 0.00 0.00 0.00 78 1014.0
20260510114534 15 211 0.0 0.0 0.00 0.00 0.00 77 1014.0
20260510113040 15 211 0.0 0.0 0.00 0.00 0.00 76 1013.9
20260510111531 15 211 0.0 0.0 0.00 0.00 0.00 76 1013.9
20260510110030 15 211 0.0 0.0 0.00 0.00 0.00 75 1013.9
20260510104527 15 211 0.0 0.0 0.00 0.00 0.00 75 1013.6
20260510103027 15 211 0.0 0.0 0.00 0.00 0.00 76 1013.2
20260510101527 15 211 0.0 0.0 0.00 0.00 0.00 76 1013.1
20260510100025 15 211 0.0 0.0 0.00 0.00 0.00 75 1013.0
20260510094526 15 211 0.0 0.0 0.00 0.00 0.00 76 1013.1
20260510093027 15 211 0.0 0.0 0.00 0.00 0.00 76 1013.1
20260510091524 15 211 0.0 0.0 0.00 0.00 0.00 76 1012.7
20260510090023 15 211 0.0 0.0 0.00 0.00 0.00 76 1012.5
20260510084522 15 211 0.0 0.0 0.00 0.00 0.00 76 1012.6
20260510083022 15 211 0.0 0.0 0.00 0.00 0.00 76 1012.5
20260510081521 15 211 0.0 0.0 0.00 0.00 0.00 76 1012.4
20260510080019 15 211 0.0 0.0 0.00 0.00 0.00 75 1012.3
20260510074521 15 211 0.0 0.0 0.00 0.00 0.00 75 1012.0
20260510073018 15 211 0.0 0.0 0.00 0.00 0.00 74 1011.9
20260510071516 15 211 0.0 0.0 0.00 0.00 0.00 73 1012.0
20260510070014 15 211 0.0 0.0 0.00 0.00 0.00 73 1012.0
20260510064514 15 211 0.0 0.0 0.00 0.00 0.00 73 1011.9
20260510063012 16 211 0.0 0.0 0.00 0.00 0.00 71 1012.0
20260510061510 16 211 0.0 0.0 0.00 0.00 0.00 69 1012.0
20260510060015 16 211 0.0 0.0 0.00 0.00 0.00 69 1012.1
20260510054506 16 211 0.0 0.0 0.00 0.00 0.00 68 1012.2
20260510053004 17 211 0.0 0.0 0.00 0.00 0.00 67 1012.2
20260510051505 17 211 0.0 0.0 0.00 0.00 0.00 66 1012.2
20260510050001 17 211 0.0 0.0 0.00 0.00 0.00 65 1012.2
20260510044603 17 211 0.0 0.0 0.00 0.00 0.00 65 1012.2
20260510043109 17 211 0.0 0.0 0.00 0.00 0.00 64 1012.2
20260510041559 18 211 0.0 0.0 0.00 0.00 0.00 65 1012.1
20260510040106 18 211 0.0 0.0 0.00 0.00 0.00 63 1012.1
20260510034555 18 211 0.0 0.0 0.00 0.00 0.00 63 1012.2
20260510033055 18 218 0.0 0.0 0.00 0.00 0.00 62 1012.2
20260510031558 18 218 0.0 1.6 0.00 0.00 0.00 61 1012.3
20260510030053 19 219 0.0 0.0 0.00 0.00 0.00 60 1012.2
20260510024552 19 219 0.0 0.0 0.00 0.00 0.00 59 1012.0
20260510023051 20 219 0.0 0.0 0.00 0.00 0.00 58 1011.9
20260510021550 20 219 0.0 0.0 0.00 0.00 0.00 57 1011.7
20260510020049 21 219 0.0 0.0 0.00 0.00 0.00 54 1011.4
20260510014548 21 219 0.0 0.0 0.00 0.00 0.00 53 1011.1
20260510013046 21 219 0.0 0.0 0.00 0.00 0.00 52 1010.9
20260510011545 22 219 0.0 1.6 0.00 0.00 0.00 49 1010.7
20260510010044 22 223 0.0 4.8 0.00 0.00 0.00 48 1010.4
20260510004544 22 225 0.0 6.4 0.00 0.00 0.00 47 1010.3
20260510003048 23 165 1.6 9.7 0.00 0.00 0.00 46 1010.0
20260510001549 23 211 0.0 8.0 0.00 0.00 0.00 45 1009.8
20260510000043 23 207 1.6 12.9 0.00 0.00 0.00 45 1009.6
20260509234543 23 206 1.6 12.9 0.00 0.00 0.00 45 1009.4
20260509233046 23 195 1.6 12.9 0.00 0.00 0.00 45 1009.3
20260509231541 24 200 3.2 9.7 0.00 0.00 0.00 44 1009.4
20260509230041 25 224 0.0 14.5 0.00 0.00 0.00 42 1009.3
20260509224554 25 218 3.2 11.3 0.00 0.00 0.00 41 1009.1